GW2924 Weather Reports


time (UTC)temp
F
wind
direction
speed
knots
gust
knots
rain 1hr
in
rain 24hr
in
rain mn
in
humidity
%
barometer
mb
20260504080558 49 288 2.6 7.8 0.00 0.00 0.00 59 1000.3
20260504080103 49 200 2.6 7.0 0.00 0.00 0.00 59 1000.4
20260504060105 51 151 0.9 6.1 0.00 0.00 0.00 54 1002.4
20260504050556 48 228 0.0 2.6 0.00 0.00 0.00 59 1003.4
20260504045555 48 193 0.9 2.6 0.00 0.00 0.00 60 1003.4
20260504045055 47 199 0.9 3.5 0.00 0.00 0.00 62 1003.5
20260504044558 47 240 1.7 3.5 0.00 0.00 0.00 62 1003.6
20260504044055 47 274 1.7 3.5 0.00 0.00 0.00 62 1003.7
20260504043555 47 276 1.7 3.5 0.00 0.00 0.00 62 1003.8
20260504043059 47 284 0.9 2.6 0.00 0.00 0.00 62 1003.8
20260504042554 48 276 0.9 2.6 0.00 0.00 0.00 62 1003.9
20260504042053 48 212 0.0 1.7 0.00 0.00 0.00 62 1004.0
20260504041554 48 174 0.0 1.7 0.00 0.00 0.00 61 1004.0
20260504041052 48 214 0.0 1.7 0.00 0.00 0.00 61 1004.1
20260504040554 48 298 0.0 1.7 0.00 0.00 0.00 61 1004.2
20260504040059 48 243 0.0 1.7 0.00 0.00 0.00 60 1004.3
20260504035552 48 228 0.9 1.7 0.00 0.00 0.00 59 1004.4
20260504035055 48 217 0.9 2.6 0.00 0.00 0.00 58 1004.5
20260504034623 48 231 0.9 2.6 0.00 0.00 0.00 58 1004.5
20260504034057 49 245 0.9 1.7 0.00 0.00 0.00 58 1004.6
20260504033555 49 272 0.0 1.7 0.00 0.00 0.00 55 1004.7
20260504033055 49 159 0.9 1.7 0.00 0.00 0.00 54 1004.7
20260504032554 49 195 0.0 0.9 0.00 0.00 0.00 54 1004.7
20260504032057 49 0 0.0 1.7 0.00 0.00 0.00 55 1004.8
20260504031555 50 0 0.0 1.7 0.00 0.00 0.00 55 1004.9
20260504031055 50 232 0.9 1.7 0.00 0.00 0.00 55 1004.8
20260504030555 50 195 0.9 1.7 0.00 0.00 0.00 54 1004.9
20260504030055 50 181 0.0 1.7 0.00 0.00 0.00 54 1005.0
20260504025555 50 226 0.9 1.7 0.00 0.00 0.00 54 1005.1
20260504025056 50 232 0.9 1.7 0.00 0.00 0.00 53 1005.1
20260504024555 51 205 0.0 1.7 0.00 0.00 0.00 53 1005.1
20260504024052 51 198 0.0 1.7 0.00 0.00 0.00 52 1005.1
20260504023556 51 211 0.0 0.9 0.00 0.00 0.00 51 1005.1
20260504023058 52 0 0.0 0.9 0.00 0.00 0.00 52 1005.1
20260504022553 52 210 0.0 0.9 0.00 0.00 0.00 50 1005.2
20260504022055 52 207 0.0 0.9 0.00 0.00 0.00 50 1005.1
20260504021554 52 0 0.0 0.9 0.00 0.00 0.00 50 1005.1
20260504021056 53 0 0.0 0.9 0.00 0.00 0.00 50 1005.3
20260504020554 53 200 0.0 0.0 0.00 0.00 0.00 48 1005.1
20260504020117 54 194 0.0 0.0 0.00 0.00 0.00 47 1005.1
20260504015552 55 0 0.0 0.0 0.00 0.00 0.00 46 1005.1
20260504015051 56 0 0.0 0.9 0.00 0.00 0.00 44 1005.1
20260504014600 56 0 0.0 1.7 0.00 0.00 0.00 43 1005.1
20260504014055 57 194 0.0 1.7 0.00 0.00 0.00 42 1005.1
20260504013558 57 190 0.0 0.9 0.00 0.00 0.00 43 1005.1
20260504013123 58 0 0.0 0.0 0.00 0.00 0.00 43 1005.1
20260504012555 58 0 0.0 0.9 0.00 0.00 0.00 42 1005.1
20260504012051 59 0 0.0 1.7 0.00 0.00 0.00 40 1005.1
20260504011554 60 0 0.9 1.7 0.00 0.00 0.00 38 1005.1
20260504011052 60 193 0.0 0.9 0.00 0.00 0.00 39 1005.1
20260504010552 61 221 0.0 2.6 0.00 0.00 0.00 37 1005.1
20260504010055 62 200 0.0 2.6 0.00 0.00 0.00 36 1005.1
20260504005554 62 262 0.9 2.6 0.00 0.00 0.00 35 1005.1
20260504005054 63 289 1.7 3.5 0.00 0.00 0.00 35 1005.1
20260504004558 64 288 1.7 3.5 0.00 0.00 0.00 35 1005.1
20260504004053 64 303 0.9 3.5 0.00 0.00 0.00 33 1005.1
20260504003553 64 307 1.7 6.1 0.00 0.00 0.00 33 1005.1
20260504003057 65 287 1.7 6.1 0.00 0.00 0.00 32 1005.1
20260504002556 65 314 2.6 6.1 0.00 0.00 0.00 31 1005.1
20260504002056 66 312 0.9 4.3 0.00 0.00 0.00 32 1005.2
20260504001556 66 294 1.7 4.3 0.00 0.00 0.00 29 1005.2
20260504001057 67 294 1.7 4.3 0.00 0.00 0.00 31 1005.3
20260504000553 67 291 1.7 4.3 0.00 0.00 0.00 29 1005.3
20260504000107 68 283 2.6 4.3 0.00 0.00 0.00 30 1005.3
20260503235556 68 271 2.6 6.1 0.00 0.00 0.00 30 1005.4
20260503235058 68 255 1.7 6.1 0.00 0.00 0.00 29 1005.3
20260503234558 69 299 1.7 5.2 0.00 0.00 0.00 29 1005.3
20260503234057 69 297 1.7 5.2 0.00 0.00 0.00 29 1005.3
20260503233559 69 289 1.7 6.1 0.00 0.00 0.00 29 1005.4
20260503233058 69 314 2.6 7.0 0.00 0.00 0.00 29 1005.4
20260503232556 69 295 3.5 7.0 0.00 0.00 0.00 29 1005.4
20260503232056 69 307 3.5 7.0 0.00 0.00 0.00 28 1005.4
20260503231555 69 303 2.6 6.1 0.00 0.00 0.00 28 1005.5
20260503231100 69 271 2.6 7.8 0.00 0.00 0.00 27 1005.4
20260503230557 69 311 2.6 7.8 0.00 0.00 0.00 26 1005.5
20260503230101 69 286 3.5 8.7 0.00 0.00 0.00 28 1005.5
20260503225553 70 319 3.5 8.7 0.00 0.00 0.00 27 1005.5
20260503225057 70 285 1.7 7.8 0.00 0.00 0.00 29 1005.5
20260503224601 70 259 1.7 10.4 0.00 0.00 0.00 30 1005.5
20260503224057 69 286 5.2 10.4 0.00 0.00 0.00 31 1005.4
20260503223555 70 308 3.5 10.4 0.00 0.00 0.00 30 1005.4
20260503223056 70 297 2.6 6.1 0.00 0.00 0.00 31 1005.4
20260503222555 70 294 2.6 7.0 0.00 0.00 0.00 30 1005.4
20260503222056 70 297 3.5 7.8 0.00 0.00 0.00 28 1005.4
20260503221603 70 291 3.5 7.8 0.00 0.00 0.00 28 1005.4
20260503221058 70 189 3.5 6.1 0.00 0.00 0.00 28 1005.5
20260503220557 70 262 2.6 6.1 0.00 0.00 0.00 27 1005.4
20260503220055 70 307 3.5 7.8 0.00 0.00 0.00 28 1005.5
20260503215556 69 274 3.5 7.8 0.00 0.00 0.00 27 1005.4
20260503215056 70 269 2.6 7.8 0.00 0.00 0.00 27 1005.4
20260503214558 70 298 2.6 9.6 0.00 0.00 0.00 28 1005.4
20260503214058 69 311 4.3 9.6 0.00 0.00 0.00 28 1005.4
20260503213554 70 271 3.5 7.8 0.00 0.00 0.00 30 1005.4
20260503213102 70 264 2.6 9.6 0.00 0.00 0.00 33 1005.5
20260503212556 69 306 3.5 9.6 0.00 0.00 0.00 31 1005.5
20260503212056 70 230 3.5 6.1 0.00 0.00 0.00 32 1005.5
20260503211553 70 295 2.6 6.1 0.00 0.00 0.00 29 1005.5
20260503211055 70 332 1.7 6.1 0.00 0.00 0.00 35 1005.5
20260503210553 70 294 1.7 7.8 0.00 0.00 0.00 34 1005.5
20260503210053 70 307 3.5 7.8 0.00 0.00 0.00 30 1005.6
20260503205553 69 297 2.6 7.8 0.00 0.00 0.00 29 1005.7
20260503205053 69 327 2.6 7.8 0.00 0.00 0.00 33 1005.8
20260503204619 70 298 3.5 7.8 0.00 0.00 0.00 33 1005.8
20260503204052 70 297 1.7 8.7 0.00 0.00 0.00 32 1005.9
20260503203552 69 305 3.5 8.7 0.00 0.00 0.00 31 1005.9
20260503203059 69 270 2.6 9.6 0.00 0.00 0.00 33 1006.1
20260503202556 69 307 5.2 9.6 0.00 0.00 0.00 30 1006.1
20260503202100 69 255 5.2 9.6 0.00 0.00 0.00 33 1006.2
20260503201555 70 295 2.6 7.8 0.00 0.00 0.00 33 1006.1
20260503201053 70 286 3.5 7.8 0.00 0.00 0.00 32 1006.1
20260503200557 70 289 1.7 7.0 0.00 0.00 0.00 33 1006.1
20260503200101 69 290 3.5 8.7 0.00 0.00 0.00 29 1006.1
20260503195556 69 317 3.5 8.7 0.00 0.00 0.00 32 1006.1
20260503195056 70 291 3.5 7.8 0.00 0.00 0.00 31 1006.1
20260503194602 70 290 2.6 10.4 0.00 0.00 0.00 35 1006.2
20260503194054 70 295 4.3 10.4 0.00 0.00 0.00 33 1006.1
20260503193556 70 262 2.6 7.0 0.00 0.00 0.00 35 1006.2
20260503193108 70 299 2.6 7.8 0.00 0.00 0.00 37 1006.1
20260503192553 69 240 3.5 7.8 0.00 0.00 0.00 38 1006.2
20260503192053 69 307 4.3 9.6 0.00 0.00 0.00 40 1006.3
20260503191614 68 257 2.6 9.6 0.00 0.00 0.00 38 1006.2
20260503191056 69 295 5.2 8.7 0.00 0.00 0.00 39 1006.4
20260503190554 69 322 3.5 8.7 0.00 0.00 0.00 38 1006.4
20260503190057 69 297 3.5 6.1 0.00 0.00 0.00 34 1006.2
20260503185558 69 331 2.6 8.7 0.00 0.00 0.00 36 1006.4
20260503185052 69 314 2.6 8.7 0.00 0.00 0.00 39 1006.4
20260503184600 69 351 3.5 7.8 0.00 0.00 0.00 40 1006.3
20260503184057 69 266 3.5 7.8 0.00 0.00 0.00 38 1006.3
20260503183556 69 350 2.6 7.0 0.00 0.00 0.00 33 1006.4
20260503183058 69 281 2.6 7.0 0.00 0.00 0.00 34 1006.4
20260503182556 69 276 2.6 6.1 0.00 0.00 0.00 35 1006.4
20260503182057 69 301 3.5 7.0 0.00 0.00 0.00 33 1006.4
20260503181555 69 338 3.5 7.8 0.00 0.00 0.00 32 1006.5
20260503181054 69 308 3.5 8.7 0.00 0.00 0.00 33 1006.5
20260503180556 69 293 4.3 8.7 0.00 0.00 0.00 35 1006.6
20260503180100 69 293 3.5 9.6 0.00 0.00 0.00 39 1006.5
20260503175556 69 283 2.6 9.6 0.00 0.00 0.00 34 1006.6
20260503175056 68 346 2.6 7.8 0.00 0.00 0.00 39 1006.6
20260503174556 68 302 3.5 7.8 0.00 0.00 0.00 37 1006.7
20260503174053 68 284 4.3 7.8 0.00 0.00 0.00 36 1006.7
20260503173557 68 303 1.7 7.8 0.00 0.00 0.00 38 1006.7
20260503173100 68 304 3.5 7.8 0.00 0.00 0.00 38 1006.7
20260503172552 68 321 3.5 7.0 0.00 0.00 0.00 38 1006.8
20260503172058 67 314 2.6 10.4 0.00 0.00 0.00 44 1006.9
20260503171558 68 297 5.2 10.4 0.00 0.00 0.00 39 1006.9
20260503171056 68 302 2.6 7.8 0.00 0.00 0.00 45 1006.8
20260503170553 68 340 4.3 11.3 0.00 0.00 0.00 38 1006.8
20260503170111 67 266 2.6 11.3 0.00 0.00 0.00 41 1006.7
20260503160109 64 1 4.3 7.0 0.00 0.00 0.00 44 1006.6
20260503150556 61 281 2.6 7.0 0.00 0.00 0.00 48 1006.2
20260503131055 56 249 2.6 10.4 0.00 0.00 0.00 52 1005.8
20260503130555 56 144 4.3 13.0 0.00 0.00 0.00 51 1005.8
20260503110555 50 167 3.5 8.7 0.00 0.00 0.00 59 1005.3
20260503100105 53 181 7.0 14.8 0.00 0.00 0.00 56 1005.8
20260503081554 55 211 3.5 10.4 0.00 0.00 0.00 47 1007.1
20260503081051 55 131 4.3 10.4 0.00 0.00 0.00 49 1007.2